Marshall, TX

1:43 PM CST on January 23, 2017 (GMT -0600)
Harrison County

Weather History for KASL - November, 2012

Change the Weather History Date:

Tuesday, November 13, 2012

  Actual Average (KGGG) Record (KGGG)
Temperature  
Mean Temperature 42 °F -  
Max Temperature 53 °F 64 °F 92 °F (1903)
Min Temperature 32 °F 45 °F 22 °F (1907)
Degree Days  
Heating Degree Days 22    
Moisture  
Dew Point 29 °F    
Average Humidity 74    
Maximum Humidity 100    
Minimum Humidity 30    
Precipitation  
Precipitation 0.00 in - - ()
Sea Level Pressure  
Sea Level Pressure 30.50 in    
Wind  
Wind Speed 1 mph (NE)    
Max Wind Speed 15 mph    
Max Gust Speed 20 mph    
Visibility 7 miles    
Events      
Averages and records for this station are not official NWS values.
T = Trace of Precipitation, MM = Missing Value Source: NWS Daily Summary

Daily Weather History Graph

Daily Weather History Graph

Search for Another Location

Airport or City:

Trip Planner

Search our weather history database for the weather conditions in past years. The results will help you decide how hot, cold, wet, or windy it might be!

Date:

Astronomy

Nov. 13, 2012 Rise Set
Actual Time 6:45 AM CST 5:17 PM CST
Civil Twilight 6:19 AM CST 5:43 PM CST
Nautical Twilight 5:49 AM CST 6:12 PM CST
Astronomical Twilight 5:20 AM CST 6:42 PM CST
Moon 6:23 AM CST (11/13) 5:12 PM CST (11/13)
Length of Visible Light 11h 23m
Length of Day
10h 31m
Waning Crescent, 0% of the Moon is Illuminated
Nov 13
Waning Crescent
Nov 13
New
Nov 20
First Quarter
Nov 28
Full
Dec 6
Last Quarter

Hourly Weather History & Observations

Time (CST) Temp. Windchill Dew Point Humidity Pressure Visibility Wind Dir Wind Speed Gust Speed Precip Events Conditions
12:15 AM 32.0 °F - 32.0 °F 100% 30.50 in 5.0 mi Calm Calm - N/A   Clear
12:35 AM 32.0 °F - 32.0 °F 100% 30.50 in 5.0 mi Calm Calm - N/A   Clear
12:55 AM 32.0 °F - 32.0 °F 100% 30.49 in 5.0 mi Calm Calm - N/A   Clear
1:15 AM 32.0 °F - 32.0 °F 100% 30.50 in 5.0 mi Calm Calm - N/A   Clear
1:35 AM 32.0 °F - 32.0 °F 100% 30.50 in 5.0 mi Calm Calm - N/A   Clear
1:55 AM 32.0 °F - 32.0 °F 100% 30.50 in 5.0 mi Calm Calm - N/A   Clear
2:15 AM 32.0 °F - 32.0 °F 100% 30.50 in 5.0 mi Calm Calm - N/A   Clear
2:35 AM 32.0 °F - 32.0 °F 100% 30.50 in 5.0 mi Calm Calm - N/A   Clear
2:55 AM 32.0 °F - 32.0 °F 100% 30.50 in 5.0 mi Calm Calm - N/A   Clear
3:15 AM 32.0 °F - 30.2 °F 93% 30.51 in 5.0 mi Calm Calm - N/A   Clear
3:35 AM 32.0 °F - 30.2 °F 93% 30.51 in 5.0 mi Calm Calm - N/A   Clear
3:55 AM 32.0 °F - 30.2 °F 93% 30.51 in 5.0 mi Calm Calm - N/A   Clear
4:15 AM 32.0 °F - 30.2 °F 93% 30.51 in 5.0 mi Calm Calm - N/A   Clear
4:35 AM 32.0 °F - 30.2 °F 93% 30.51 in 7.0 mi Calm Calm - N/A   Clear
4:55 AM 32.0 °F - 30.2 °F 93% 30.51 in 7.0 mi Calm Calm - N/A   Clear
5:15 AM 32.0 °F - 30.2 °F 93% 30.51 in 7.0 mi Calm Calm - N/A   Clear
5:35 AM 32.0 °F - 30.2 °F 93% 30.51 in 7.0 mi Calm Calm - N/A   Clear
5:55 AM 32.0 °F - 30.2 °F 93% 30.52 in 10.0 mi Calm Calm - N/A   Clear
6:15 AM 32.0 °F - 30.2 °F 93% 30.52 in 10.0 mi Calm Calm - N/A   Clear
6:35 AM 32.0 °F - 30.2 °F 93% 30.53 in 10.0 mi Calm Calm - N/A   Clear
6:55 AM 32.0 °F - 30.2 °F 93% 30.53 in 7.0 mi Calm Calm - N/A   Clear
7:15 AM 32.0 °F - 30.2 °F 93% 30.54 in 7.0 mi Calm Calm - N/A   Clear
7:35 AM 32.0 °F - 30.2 °F 93% 30.55 in 10.0 mi Calm Calm - N/A   Clear
7:55 AM 32.0 °F - 32.0 °F 100% 30.55 in 10.0 mi Calm Calm - N/A   Clear
8:15 AM 35.6 °F - 33.8 °F 93% 30.55 in 10.0 mi Calm Calm - N/A   Clear
8:35 AM 42.8 °F 40.1 °F 33.8 °F 70% 30.56 in 10.0 mi ENE 4.6 mph - N/A   Clear
8:55 AM 44.6 °F 42.2 °F 32.0 °F 61% 30.56 in 10.0 mi ENE 4.6 mph - N/A   Clear
9:15 AM 44.6 °F 40.7 °F 30.2 °F 57% 30.56 in 10.0 mi NE 6.9 mph - N/A   Clear
9:35 AM 46.4 °F 43.5 °F 32.0 °F 57% 30.55 in 10.0 mi East 5.8 mph - N/A   Clear
10:15 AM 50.0 °F - 30.2 °F 47% 30.54 in 10.0 mi ENE 6.9 mph - N/A   Clear
10:35 AM 50.0 °F - 24.8 °F 37% 30.53 in 7.0 mi ENE 15.0 mph 19.6 mph N/A   Clear
10:55 AM 51.8 °F - 23.0 °F 33% 30.52 in 10.0 mi NE 8.1 mph 18.4 mph N/A   Clear
11:15 AM 51.8 °F - 23.0 °F 33% 30.51 in 10.0 mi ENE 10.4 mph - N/A   Clear
11:35 AM 51.8 °F - 23.0 °F 33% 30.49 in 10.0 mi NE 4.6 mph - N/A   Clear
11:55 AM 51.8 °F - 23.0 °F 33% 30.48 in 10.0 mi East 6.9 mph - N/A   Clear
12:15 PM 53.6 °F - 23.0 °F 30% 30.47 in 10.0 mi ENE 5.8 mph - N/A   Clear
12:55 PM 53.6 °F - 23.0 °F 30% 30.43 in 10.0 mi NNE 5.8 mph - N/A   Clear
1:15 PM 51.8 °F - 23.0 °F 33% 30.43 in 10.0 mi NNE 3.5 mph - N/A   Clear
1:35 PM 53.6 °F - 24.8 °F 33% 30.42 in 4.0 mi NE 4.6 mph - N/A   Clear
3:15 PM 51.8 °F - 23.0 °F 33% 30.39 in 4.0 mi NE 3.5 mph - N/A   Clear
3:35 PM 51.8 °F - 23.0 °F 33% 30.39 in 2.5 mi North 3.5 mph - N/A   Clear